#timestamp,LO_Frequency,Hit,StdDev 
1696431615.0,286047002.1,P
1696431615.9,286047002.1,P
1696431635.8,286047002.7,P
1696431655.6,286046999.8,N
1696431675.5,286047000.2,N
1696431695.3,286046998.3,N
1696431715.1,286047000.6,N
1696431735.9,286047000.3,N
1696431755.7,286046998.2,N
1696431775.5,286046998.4,N
1696431795.4,286047000.8,N
1696431815.2,286046999.9,N
1696431835.1,286047000.4,N
1696431836.0,286047000.4,N
1696431855.8,286047002.8,N
1696431875.7,286047000.1,N
1696431895.5,286047002.2,N
1696431915.3,286047002.1,N
1696431935.2,286047002.3,N
1696431955.0,286047000.2,N
1696431955.9,286047000.2,N
1696431975.8,286047000.1,N
1696431995.6,286047000.1,N
1696432015.4,286046998.1,N
1696432035.3,286046998.2,N
1696432055.1,286046998.2,N
1696432075.9,286046998.5,N
1696432095.7,286046998.2,N
1696432115.6,286047000.9,N
1696432135.4,286047001.0,N
1696432155.3,286046998.4,N
1696432175.1,286046999.0,N
1696432176.0,286046999.0,N
1696432195.8,286046998.9,N
1696432215.7,286046998.9,N
1696432235.5,286046999.1,N
1696432255.3,286046998.4,N
1696432275.2,286046998.4,N
1696432295.0,286046998.1,N
1696432295.9,286046998.1,N
1696432315.8,286046999.0,N
1696432335.6,286046999.3,N
1696432355.4,286046998.7,N
1696432375.3,286046999.1,N
1696432395.1,286046998.6,N
1696432396.0,286046998.6,N
1696432415.8,286046998.8,N
1696432435.7,286046998.7,N
1696432455.5,286046997.0,Y
1696432475.4,286047001.2,P
1696432495.2,286046998.9,N
1696432515.0,286046999.0,N
1696432515.9,286046999.0,N
1696432535.8,286046998.8,N
1696432555.6,286046999.3,N
1696432575.4,286046998.6,N
1696432595.3,286046998.1,N
1696432615.1,286047000.9,N
1696432635.9,286047000.5,N
1696432655.7,286047000.5,N
1696432675.5,286047001.0,N
1696432695.4,286047000.2,N
1696432715.2,286047000.3,N
1696432735.1,286046999.8,N
1696432736.0,286046999.8,N
1696432755.8,286047002.5,N
1696432775.6,286047002.7,N
1696432795.5,286047002.5,N
1696432815.3,286047001.4,N
1696432835.1,286047004.0,Y
1696432855.9,286047004.4,P
1696432875.7,286047001.3,N
1696432895.6,286047001.4,N
1696432915.4,286047004.4,N
1696432935.2,286047004.3,N
1696432955.1,286047001.7,N
1696432956.0,286047001.7,N
1696432975.8,286047004.0,N
1696432995.6,286047001.4,N
1696433015.5,286047002.7,N
1696433035.3,286047002.3,N
1696433055.2,286047002.5,N
1696433075.9,286047001.8,N
1696433095.7,286047001.3,N
1696433115.6,286047002.0,N
1696433135.4,286047004.2,Y
1696433155.3,286047000.1,P
1696433175.1,286047002.5,N
1696433195.8,286047001.7,N
1696433215.7,286047001.7,N
1696433235.5,286047002.0,N
1696433255.4,286047001.4,N
1696433275.2,286047003.2,Y
1696433295.0,286047002.7,P
1696433295.9,286047002.7,P
1696433315.8,286047002.4,P
1696433335.6,286047002.7,Y
1696433355.5,286046998.2,P
1696433375.3,286047000.4,N
1696433395.1,286047001.0,N
1696433415.9,286047000.6,N
1696433435.7,286046998.5,N
1696433455.5,286047000.7,N
1696433475.4,286047000.8,N
1696433495.2,286047001.0,N
1696433515.1,286047000.9,N
1696433516.0,286047000.9,N
1696433535.8,286047000.4,N
1696433555.6,286047000.3,N
1696433575.5,286047000.2,N
1696433595.3,286047000.3,N
1696433615.2,286047000.9,N
1696433635.9,286047000.3,N
1696433655.7,286047000.5,N
1696433675.6,286047001.0,N
1696433695.4,286047000.1,N
1696433715.2,286047002.3,N
1696433735.1,286047002.4,N
1696433736.0,286047002.4,N
1696433755.8,286047000.2,N
1696433775.7,286047002.4,N
1696433795.5,286047002.7,N
1696433815.3,286047001.6,N
1696433835.2,286047001.8,N
1696433855.0,286047001.4,N
1696433855.9,286047001.4,N
1696433875.8,286047002.0,N
1696433895.6,286047002.6,N
1696433915.4,286047002.2,N
1696433935.3,286047002.2,N
1696433955.1,286047001.9,N
1696433975.8,286047002.1,N
1696433995.7,286047004.3,Y
1696434015.5,286047002.0,P
1696434035.4,286047002.3,P
1696434055.2,286047002.6,P
1696434075.0,286047002.7,Y
1696434075.9,286047002.7,P
1696434095.8,286047000.7,N
1696434115.6,286047000.9,N
1696434135.5,286047000.0,N
1696434155.3,286046999.9,N
1696434175.1,286046999.9,N
1696434195.9,286047001.1,N
1696434215.7,286047001.1,N
1696434235.5,286047000.4,N
1696434255.4,286046999.9,N
1696434275.2,286047000.5,N
1696434295.1,286047000.7,N
1696434296.0,286047000.7,N
1696434315.8,286046998.6,N
1696434335.6,286047000.8,N
1696434355.5,286046998.6,N
1696434375.3,286046998.1,N
1696434395.1,286046998.1,N
1696434415.9,286047000.3,N
1696434435.7,286046998.2,N
1696434455.6,286046998.6,N
1696434475.4,286046998.6,N
1696434495.2,286046998.6,N
1696434515.1,286046998.9,N
1696434516.0,286046998.9,N
1696434535.8,286046999.3,N
1696434555.7,286046998.6,N
1696434575.5,286046998.8,N
1696434595.3,286046999.1,N
1696434615.2,286046999.3,N
1696434635.9,286046999.0,N
1696434655.7,286046999.0,N
1696434675.6,286046996.5,Y
1696434695.4,286046998.9,P
1696434715.3,286046998.4,P
1696434735.1,286046998.9,N
1696434755.8,286046998.8,Y
1696434775.7,286047001.2,P
1696434795.5,286047001.0,N
1696434815.4,286046998.1,N
1696434835.2,286046998.1,N
1696434855.0,286047001.0,N
1696434855.9,286047001.0,N
1696434875.8,286047000.8,N
1696434895.6,286047001.2,N
1696434915.5,286047001.2,N
1696434935.3,286046998.5,N
1696434955.1,286046998.9,N
1696434975.9,286046998.7,N
1696434995.7,286047000.7,N
1696435015.5,286046998.4,N
1696435035.4,286046998.5,N
1696435055.2,286047001.2,N
1696435075.1,286047001.2,N
1696435076.0,286047001.2,N
1696435095.8,286047001.0,N
1696435115.6,286047000.9,N
1696435135.5,286047000.7,N
1696435155.3,286047001.1,N
1696435175.1,286047000.0,N
1696435195.9,286047000.4,N
